Year,Month,Day,Hour,Minute,Value (Times are PST for temperature in C)
2018,06,17,00,00,13.60
2018,06,17,00,01,13.60
2018,06,17,00,02,13.50
2018,06,17,00,03,13.50
2018,06,17,00,04,13.50
2018,06,17,00,05,13.50
2018,06,17,00,06,13.50
2018,06,17,00,07,13.40
2018,06,17,00,08,13.40
2018,06,17,00,09,13.40
2018,06,17,00,10,13.40
2018,06,17,00,11,13.40
2018,06,17,00,12,13.40
2018,06,17,00,13,13.40
2018,06,17,00,14,13.40
2018,06,17,00,15,13.30
2018,06,17,00,16,13.30
2018,06,17,00,17,13.30
2018,06,17,00,18,13.30
2018,06,17,00,19,13.30
2018,06,17,00,20,13.30
2018,06,17,00,21,13.30
2018,06,17,00,22,13.30
2018,06,17,00,23,13.30
2018,06,17,00,24,13.20
2018,06,17,00,25,13.20
2018,06,17,00,26,13.20
2018,06,17,00,27,13.20
2018,06,17,00,28,13.20
2018,06,17,00,29,13.10
2018,06,17,00,30,13.10
2018,06,17,00,31,13.10
2018,06,17,00,32,13.10
2018,06,17,00,33,13.10
2018,06,17,00,34,13.00
2018,06,17,00,35,13.00
2018,06,17,00,36,13.00
2018,06,17,00,37,13.00
2018,06,17,00,38,13.00
2018,06,17,00,39,12.90
2018,06,17,00,40,12.90
2018,06,17,00,41,12.90
2018,06,17,00,42,12.90
2018,06,17,00,43,12.90
2018,06,17,00,44,12.90
2018,06,17,00,45,12.90
2018,06,17,00,46,12.90
2018,06,17,00,47,12.90
2018,06,17,00,48,12.90
2018,06,17,00,49,12.90
2018,06,17,00,50,12.90
2018,06,17,00,51,12.80
2018,06,17,00,52,12.80
2018,06,17,00,53,12.80
2018,06,17,00,54,12.80
2018,06,17,00,55,12.80
2018,06,17,00,56,12.80
2018,06,17,00,57,12.80
2018,06,17,00,58,12.80
2018,06,17,00,59,12.70
2018,06,17,01,00,12.70
2018,06,17,01,01,12.70
2018,06,17,01,02,12.70
2018,06,17,01,03,12.70
2018,06,17,01,04,12.70
2018,06,17,01,05,12.70
2018,06,17,01,06,12.70
2018,06,17,01,07,12.70
2018,06,17,01,08,12.60
2018,06,17,01,09,12.60
2018,06,17,01,10,12.60
2018,06,17,01,11,12.60
2018,06,17,01,12,12.60
2018,06,17,01,13,12.60
2018,06,17,01,14,12.60
2018,06,17,01,15,12.60
2018,06,17,01,16,12.60
2018,06,17,01,17,12.50
2018,06,17,01,18,12.50
2018,06,17,01,19,12.50
2018,06,17,01,20,12.50
2018,06,17,01,21,12.50
2018,06,17,01,22,12.50
2018,06,17,01,23,12.50
2018,06,17,01,24,12.50
2018,06,17,01,25,12.50
2018,06,17,01,26,12.50
2018,06,17,01,27,12.40
2018,06,17,01,28,12.40
2018,06,17,01,29,12.40
2018,06,17,01,30,12.40
2018,06,17,01,31,12.40
2018,06,17,01,32,12.40
2018,06,17,01,33,12.40
2018,06,17,01,34,12.40
2018,06,17,01,35,12.30
2018,06,17,01,36,12.30
2018,06,17,01,37,12.30
2018,06,17,01,38,12.30
2018,06,17,01,39,12.30
2018,06,17,01,40,12.30
2018,06,17,01,41,12.30
2018,06,17,01,42,12.30
2018,06,17,01,43,12.30
2018,06,17,01,44,12.30
2018,06,17,01,45,12.30
2018,06,17,01,46,12.20
2018,06,17,01,47,12.20
2018,06,17,01,48,12.20
2018,06,17,01,49,12.20
2018,06,17,01,50,12.20
2018,06,17,01,51,12.20
2018,06,17,01,52,12.20
2018,06,17,01,53,12.20
2018,06,17,01,54,12.20
2018,06,17,01,55,12.20
2018,06,17,01,56,12.20
2018,06,17,01,57,12.20
2018,06,17,01,58,12.20
2018,06,17,01,59,12.20
2018,06,17,02,00,12.20
2018,06,17,02,01,12.20
2018,06,17,02,02,12.20
2018,06,17,02,03,12.20
2018,06,17,02,04,12.20
2018,06,17,02,05,12.20
2018,06,17,02,06,12.20
2018,06,17,02,07,12.20
2018,06,17,02,08,12.20
2018,06,17,02,09,12.10
2018,06,17,02,10,12.10
2018,06,17,02,11,12.10
2018,06,17,02,12,12.10
2018,06,17,02,13,12.10
2018,06,17,02,14,12.10
2018,06,17,02,15,12.10
2018,06,17,02,16,12.10
2018,06,17,02,17,12.10
2018,06,17,02,18,12.00
2018,06,17,02,19,12.00
2018,06,17,02,20,12.00
2018,06,17,02,21,12.00
2018,06,17,02,22,11.90
2018,06,17,02,23,11.90
2018,06,17,02,24,11.90
2018,06,17,02,25,11.90
2018,06,17,02,26,11.90
2018,06,17,02,27,11.90
2018,06,17,02,28,11.90
2018,06,17,02,29,11.90
2018,06,17,02,30,11.90
2018,06,17,02,31,11.90
2018,06,17,02,32,11.80
2018,06,17,02,33,11.80
2018,06,17,02,34,11.80
2018,06,17,02,35,11.80
2018,06,17,02,36,11.80
2018,06,17,02,37,11.80
2018,06,17,02,38,11.80
2018,06,17,02,39,11.80
2018,06,17,02,40,11.80
2018,06,17,02,41,11.70
2018,06,17,02,42,11.70
2018,06,17,02,43,11.70
2018,06,17,02,44,11.70
2018,06,17,02,45,11.70
2018,06,17,02,46,11.70
2018,06,17,02,47,11.70
2018,06,17,02,48,11.70
2018,06,17,02,49,11.70
2018,06,17,02,50,11.70
2018,06,17,02,51,11.70
2018,06,17,02,52,11.70
2018,06,17,02,53,11.70
2018,06,17,02,54,11.70
2018,06,17,02,55,11.70
2018,06,17,02,56,11.70
2018,06,17,02,57,11.70
2018,06,17,02,58,11.70
2018,06,17,02,59,11.70
2018,06,17,03,00,11.70
2018,06,17,03,01,11.70
2018,06,17,03,02,11.70
2018,06,17,03,03,11.60
2018,06,17,03,04,11.60
2018,06,17,03,05,11.60
2018,06,17,03,06,11.60
2018,06,17,03,07,11.60
2018,06,17,03,08,11.60
2018,06,17,03,09,11.60
2018,06,17,03,10,11.60
2018,06,17,03,11,11.60
2018,06,17,03,12,11.60
2018,06,17,03,13,11.50
2018,06,17,03,14,11.50
2018,06,17,03,15,11.50
2018,06,17,03,16,11.50
2018,06,17,03,17,11.50
2018,06,17,03,18,11.50
2018,06,17,03,19,11.50
2018,06,17,03,20,11.50
2018,06,17,03,21,11.50
2018,06,17,03,22,11.50
2018,06,17,03,23,11.40
2018,06,17,03,24,11.40
2018,06,17,03,25,11.40
2018,06,17,03,26,11.40
2018,06,17,03,27,11.40
2018,06,17,03,28,11.40
2018,06,17,03,29,11.40
2018,06,17,03,30,11.40
2018,06,17,03,31,11.40
2018,06,17,03,32,11.40
2018,06,17,03,33,11.40
2018,06,17,03,34,11.40
2018,06,17,03,35,11.30
2018,06,17,03,36,11.30
2018,06,17,03,37,11.30
2018,06,17,03,38,11.30
2018,06,17,03,39,11.30
2018,06,17,03,40,11.30
2018,06,17,03,41,11.30
2018,06,17,03,42,11.30
2018,06,17,03,43,11.30
2018,06,17,03,44,11.30
2018,06,17,03,45,11.20
2018,06,17,03,46,11.20
2018,06,17,03,47,11.20
2018,06,17,03,48,11.20
2018,06,17,03,49,11.20
2018,06,17,03,50,11.20
2018,06,17,03,51,11.20
2018,06,17,03,52,11.20
2018,06,17,03,53,11.20
2018,06,17,03,54,11.20
2018,06,17,03,55,11.20
2018,06,17,03,56,11.20
2018,06,17,03,57,11.20
2018,06,17,03,58,11.20
2018,06,17,03,59,11.20
2018,06,17,04,00,11.20
2018,06,17,04,01,11.20
2018,06,17,04,02,11.20
2018,06,17,04,03,11.20
2018,06,17,04,04,11.20
2018,06,17,04,05,11.20
2018,06,17,04,06,11.20
2018,06,17,04,07,11.10
2018,06,17,04,08,11.10
2018,06,17,04,09,11.10
2018,06,17,04,10,11.10
2018,06,17,04,11,11.10
2018,06,17,04,12,11.10
2018,06,17,04,13,11.10
2018,06,17,04,14,11.10
2018,06,17,04,15,11.10
2018,06,17,04,16,11.10
2018,06,17,04,17,11.10
2018,06,17,04,18,11.10
2018,06,17,04,19,11.00
2018,06,17,04,20,11.00
2018,06,17,04,21,11.00
2018,06,17,04,22,11.00
2018,06,17,04,23,11.00
2018,06,17,04,24,11.10
2018,06,17,04,25,11.10
2018,06,17,04,26,11.10
2018,06,17,04,27,11.10
2018,06,17,04,28,11.10
2018,06,17,04,29,11.20
2018,06,17,04,30,11.20
2018,06,17,04,31,11.20
2018,06,17,04,32,11.20
2018,06,17,04,33,11.20
2018,06,17,04,34,11.10
2018,06,17,04,35,11.10
2018,06,17,04,36,11.10
2018,06,17,04,37,11.10
2018,06,17,04,38,11.10
2018,06,17,04,39,11.10
2018,06,17,04,40,11.10
2018,06,17,04,41,11.10
2018,06,17,04,42,11.10
2018,06,17,04,43,11.10
2018,06,17,04,44,11.10
2018,06,17,04,45,11.00
2018,06,17,04,46,11.00
2018,06,17,04,47,11.00
2018,06,17,04,48,11.00
2018,06,17,04,49,11.00
2018,06,17,04,50,11.00
2018,06,17,04,51,10.90
2018,06,17,04,52,10.90
2018,06,17,04,53,10.90
2018,06,17,04,54,10.90
2018,06,17,04,55,10.90
2018,06,17,04,56,10.90
2018,06,17,04,57,10.80
2018,06,17,04,58,10.80
2018,06,17,04,59,10.80
2018,06,17,05,00,10.80
2018,06,17,05,01,10.80
2018,06,17,05,02,10.80
2018,06,17,05,03,10.80
2018,06,17,05,04,10.70
2018,06,17,05,05,10.70
2018,06,17,05,06,10.70
2018,06,17,05,07,10.70
2018,06,17,05,08,10.70
2018,06,17,05,09,10.70
2018,06,17,05,10,10.60
2018,06,17,05,11,10.60
2018,06,17,05,12,10.60
2018,06,17,05,13,10.60
2018,06,17,05,14,10.60
2018,06,17,05,15,10.60
2018,06,17,05,16,10.60
2018,06,17,05,17,10.60
2018,06,17,05,18,10.60
2018,06,17,05,19,10.60
2018,06,17,05,20,10.50
2018,06,17,05,21,10.50
2018,06,17,05,22,10.50
2018,06,17,05,23,10.50
2018,06,17,05,24,10.50
2018,06,17,05,25,10.40
2018,06,17,05,26,10.40
2018,06,17,05,27,10.40
2018,06,17,05,28,10.40
2018,06,17,05,29,10.40
2018,06,17,05,30,10.40
2018,06,17,05,31,10.40
2018,06,17,05,32,10.40
2018,06,17,05,33,10.40
2018,06,17,05,34,10.40
2018,06,17,05,35,10.40
2018,06,17,05,36,10.40
2018,06,17,05,37,10.40
2018,06,17,05,38,10.40
2018,06,17,05,39,10.40
2018,06,17,05,40,10.40
2018,06,17,05,41,10.40
2018,06,17,05,42,10.40
2018,06,17,05,43,10.40
2018,06,17,05,44,10.40
2018,06,17,05,45,10.40
2018,06,17,05,46,10.40
2018,06,17,05,47,10.40
2018,06,17,05,48,10.40
2018,06,17,05,49,10.40
2018,06,17,05,50,10.40
2018,06,17,05,51,10.40
2018,06,17,05,52,10.40
2018,06,17,05,53,10.40
2018,06,17,05,54,10.40
2018,06,17,05,55,10.40
2018,06,17,05,56,10.40
2018,06,17,05,57,10.40
2018,06,17,05,58,10.40
2018,06,17,05,59,10.40
2018,06,17,06,00,10.40
2018,06,17,06,01,10.40
2018,06,17,06,02,10.40
2018,06,17,06,03,10.40
2018,06,17,06,04,10.40
2018,06,17,06,05,10.40
2018,06,17,06,06,10.50
2018,06,17,06,07,10.50
2018,06,17,06,08,10.50
2018,06,17,06,09,10.50
2018,06,17,06,10,10.50
2018,06,17,06,11,10.50
2018,06,17,06,12,10.50
2018,06,17,06,13,10.50
2018,06,17,06,14,10.50
2018,06,17,06,15,10.50
2018,06,17,06,16,10.50
2018,06,17,06,17,10.50
2018,06,17,06,18,10.50
2018,06,17,06,19,10.50
2018,06,17,06,20,10.50
2018,06,17,06,21,10.50
2018,06,17,06,22,10.50
2018,06,17,06,23,10.60
2018,06,17,06,24,10.60
2018,06,17,06,25,10.60
2018,06,17,06,26,10.60
2018,06,17,06,27,10.60
2018,06,17,06,28,10.60
2018,06,17,06,29,10.60
2018,06,17,06,30,10.60
2018,06,17,06,31,10.60
2018,06,17,06,32,10.60
2018,06,17,06,33,10.60
2018,06,17,06,34,10.70
2018,06,17,06,35,10.70
2018,06,17,06,36,10.70
2018,06,17,06,37,10.70
2018,06,17,06,38,10.70
2018,06,17,06,39,10.70
2018,06,17,06,40,10.80
2018,06,17,06,41,10.80
2018,06,17,06,42,10.80
2018,06,17,06,43,10.80
2018,06,17,06,44,10.80
2018,06,17,06,45,10.80
2018,06,17,06,46,10.80
2018,06,17,06,47,10.90
2018,06,17,06,48,10.90
2018,06,17,06,49,10.90
2018,06,17,06,50,10.90
2018,06,17,06,51,10.90
2018,06,17,06,52,11.00
2018,06,17,06,53,11.00
2018,06,17,06,54,11.10
2018,06,17,06,55,11.10
2018,06,17,06,56,11.10
2018,06,17,06,57,11.10
2018,06,17,06,58,11.20
2018,06,17,06,59,11.20
2018,06,17,07,00,11.20
2018,06,17,07,01,11.30
2018,06,17,07,02,11.30
2018,06,17,07,03,11.40
2018,06,17,07,04,11.40
2018,06,17,07,05,11.50
2018,06,17,07,06,11.50
2018,06,17,07,07,11.60
2018,06,17,07,08,11.70
2018,06,17,07,09,11.70
2018,06,17,07,10,11.80
2018,06,17,07,11,11.80
2018,06,17,07,12,11.90
2018,06,17,07,13,12.00
2018,06,17,07,14,12.00
2018,06,17,07,15,12.10
2018,06,17,07,16,12.20
2018,06,17,07,17,12.30
2018,06,17,07,18,12.40
2018,06,17,07,19,12.50
2018,06,17,07,20,12.60
2018,06,17,07,21,12.70
2018,06,17,07,22,12.80
2018,06,17,07,23,13.00
2018,06,17,07,24,13.10
2018,06,17,07,25,13.30
2018,06,17,07,26,13.40
2018,06,17,07,27,13.60
2018,06,17,07,28,13.90
2018,06,17,07,29,14.10
2018,06,17,07,30,14.40
2018,06,17,07,31,14.60
2018,06,17,07,32,14.90
2018,06,17,07,33,15.00
2018,06,17,07,34,15.20
2018,06,17,07,35,15.40
2018,06,17,07,36,15.60
2018,06,17,07,37,15.80
2018,06,17,07,38,16.00
2018,06,17,07,39,16.10
2018,06,17,07,40,16.30
2018,06,17,07,41,16.50
2018,06,17,07,42,16.60
2018,06,17,07,43,16.80
2018,06,17,07,44,16.90
2018,06,17,07,45,17.10
2018,06,17,07,46,17.30
2018,06,17,07,47,17.40
2018,06,17,07,48,17.60
2018,06,17,07,49,17.70
2018,06,17,07,50,17.90
2018,06,17,07,51,18.00
2018,06,17,07,52,18.10
2018,06,17,07,53,18.20
2018,06,17,07,54,18.30
2018,06,17,07,55,18.40
2018,06,17,07,56,18.50
2018,06,17,07,57,18.50
2018,06,17,07,58,18.60
2018,06,17,07,59,18.60
2018,06,17,08,00,18.70
2018,06,17,08,01,18.80
2018,06,17,08,02,18.90
2018,06,17,08,03,18.90
2018,06,17,08,04,19.00
2018,06,17,08,05,19.20
2018,06,17,08,06,19.30
2018,06,17,08,07,19.40
2018,06,17,08,08,19.50
2018,06,17,08,09,19.70
2018,06,17,08,10,19.80
2018,06,17,08,11,19.80
2018,06,17,08,12,20.00
2018,06,17,08,13,20.00
2018,06,17,08,14,20.20
2018,06,17,08,15,20.30
2018,06,17,08,16,20.40
2018,06,17,08,17,20.50
2018,06,17,08,18,20.60
2018,06,17,08,19,20.70
2018,06,17,08,20,20.80
2018,06,17,08,21,20.80
2018,06,17,08,22,20.90
2018,06,17,08,23,21.00
2018,06,17,08,24,21.10
2018,06,17,08,25,21.20
2018,06,17,08,26,21.30
2018,06,17,08,27,21.30
2018,06,17,08,28,21.30
2018,06,17,08,29,21.30
2018,06,17,08,30,21.30
2018,06,17,08,31,21.30
2018,06,17,08,32,21.30
2018,06,17,08,33,21.40
2018,06,17,08,34,21.40
2018,06,17,08,35,21.50
2018,06,17,08,36,21.50
2018,06,17,08,37,21.60
2018,06,17,08,38,21.60
2018,06,17,08,39,21.70
2018,06,17,08,40,21.70
2018,06,17,08,41,21.80
2018,06,17,08,42,21.80
2018,06,17,08,43,21.90
2018,06,17,08,44,22.00
2018,06,17,08,45,22.00
2018,06,17,08,46,22.10
2018,06,17,08,47,22.10
2018,06,17,08,48,22.20
2018,06,17,08,49,22.30
2018,06,17,08,50,22.30
2018,06,17,08,51,22.30
2018,06,17,08,52,22.40
2018,06,17,08,53,22.40
2018,06,17,08,54,22.50
2018,06,17,08,55,22.60
2018,06,17,08,56,22.70
2018,06,17,08,57,22.80
2018,06,17,08,58,22.90
2018,06,17,08,59,23.00
2018,06,17,09,00,23.00
2018,06,17,09,01,23.10
2018,06,17,09,02,23.00
2018,06,17,09,03,22.90
2018,06,17,09,04,22.90
2018,06,17,09,05,22.80
2018,06,17,09,06,22.80
2018,06,17,09,07,22.70
2018,06,17,09,08,22.70
2018,06,17,09,09,22.60
2018,06,17,09,10,22.60
2018,06,17,09,11,22.60
2018,06,17,09,12,22.60
2018,06,17,09,13,22.60
2018,06,17,09,14,22.60
2018,06,17,09,15,22.70
2018,06,17,09,16,22.80
2018,06,17,09,17,22.80
2018,06,17,09,18,22.80
2018,06,17,09,19,22.90
2018,06,17,09,20,22.90
2018,06,17,09,21,23.00
2018,06,17,09,22,23.10
2018,06,17,09,23,23.20
2018,06,17,09,24,23.40
2018,06,17,09,25,23.40
2018,06,17,09,26,23.50
2018,06,17,09,27,23.60
2018,06,17,09,28,23.70
2018,06,17,09,29,23.70
2018,06,17,09,30,23.70
2018,06,17,09,31,23.60
2018,06,17,09,32,23.60
2018,06,17,09,33,23.50
2018,06,17,09,34,23.40
2018,06,17,09,35,23.40
2018,06,17,09,36,23.30
2018,06,17,09,37,23.30
2018,06,17,09,38,23.20
2018,06,17,09,39,23.20
2018,06,17,09,40,23.10
2018,06,17,09,41,23.10
2018,06,17,09,42,23.00
2018,06,17,09,43,23.00
2018,06,17,09,44,23.00
2018,06,17,09,45,23.10
2018,06,17,09,46,23.20
2018,06,17,09,47,23.30
2018,06,17,09,48,23.30
2018,06,17,09,49,23.40
2018,06,17,09,50,23.60
2018,06,17,09,51,23.70
2018,06,17,09,52,23.80
2018,06,17,09,53,23.90
2018,06,17,09,54,23.90
2018,06,17,09,55,23.90
2018,06,17,09,56,24.00
2018,06,17,09,57,24.00
2018,06,17,09,58,24.00
2018,06,17,09,59,24.00
2018,06,17,10,00,24.00
2018,06,17,10,01,23.90
2018,06,17,10,02,23.90
2018,06,17,10,03,23.80
2018,06,17,10,04,23.90
2018,06,17,10,05,23.90
2018,06,17,10,06,23.90
2018,06,17,10,07,23.80
2018,06,17,10,08,23.80
2018,06,17,10,09,23.80
2018,06,17,10,10,23.90
2018,06,17,10,11,23.90
2018,06,17,10,12,24.00
2018,06,17,10,13,24.10
2018,06,17,10,14,24.10
2018,06,17,10,15,24.20
2018,06,17,10,16,24.20
2018,06,17,10,17,24.30
2018,06,17,10,18,24.30
2018,06,17,10,19,24.40
2018,06,17,10,20,24.40
2018,06,17,10,21,24.50
2018,06,17,10,22,24.50
2018,06,17,10,23,24.60
2018,06,17,10,24,24.60
2018,06,17,10,25,24.70
2018,06,17,10,26,24.70
2018,06,17,10,27,24.70
2018,06,17,10,28,24.70
2018,06,17,10,29,24.60
2018,06,17,10,30,24.60
2018,06,17,10,31,24.60
2018,06,17,10,32,24.60
2018,06,17,10,33,24.70
2018,06,17,10,34,24.80
2018,06,17,10,35,24.80
2018,06,17,10,36,24.90
2018,06,17,10,37,24.90
2018,06,17,10,38,24.90
2018,06,17,10,39,24.90
2018,06,17,10,40,24.80
2018,06,17,10,41,24.70
2018,06,17,10,42,24.70
2018,06,17,10,43,24.70
2018,06,17,10,44,24.60
2018,06,17,10,45,24.50
2018,06,17,10,46,24.40
2018,06,17,10,47,24.30
2018,06,17,10,48,24.20
2018,06,17,10,49,24.20
2018,06,17,10,50,24.10
2018,06,17,10,51,24.10
2018,06,17,10,52,24.00
2018,06,17,10,53,24.00
2018,06,17,10,54,24.00
2018,06,17,10,55,24.00
2018,06,17,10,56,24.10
2018,06,17,10,57,24.10
2018,06,17,10,58,24.20
2018,06,17,10,59,24.20
2018,06,17,11,00,24.30
2018,06,17,11,01,24.40
2018,06,17,11,02,24.40
2018,06,17,11,03,24.40
2018,06,17,11,04,24.40
2018,06,17,11,05,24.40
2018,06,17,11,06,24.50
2018,06,17,11,07,24.60
2018,06,17,11,08,24.70
2018,06,17,11,09,24.70
2018,06,17,11,10,24.80
2018,06,17,11,11,24.80
2018,06,17,11,12,24.90
2018,06,17,11,13,24.90
2018,06,17,11,14,24.80
2018,06,17,11,15,24.80
2018,06,17,11,16,24.80
2018,06,17,11,17,24.90
2018,06,17,11,18,24.90
2018,06,17,11,19,25.00
2018,06,17,11,20,25.10
2018,06,17,11,21,25.10
2018,06,17,11,22,25.20
2018,06,17,11,23,25.30
2018,06,17,11,24,25.40
2018,06,17,11,25,25.50
2018,06,17,11,26,25.70
2018,06,17,11,27,25.80
2018,06,17,11,28,25.90
2018,06,17,11,29,25.90
2018,06,17,11,30,26.00
2018,06,17,11,31,26.00
2018,06,17,11,32,26.10
2018,06,17,11,33,26.10
2018,06,17,11,34,26.00
2018,06,17,11,35,25.90
2018,06,17,11,36,25.90
2018,06,17,11,37,25.90
2018,06,17,11,38,25.90
2018,06,17,11,39,25.90
2018,06,17,11,40,26.00
2018,06,17,11,41,26.00
2018,06,17,11,42,26.10
2018,06,17,11,43,26.20
2018,06,17,11,44,26.20
2018,06,17,11,45,26.30
2018,06,17,11,46,26.30
2018,06,17,11,47,26.30
2018,06,17,11,48,26.30
2018,06,17,11,49,26.20
2018,06,17,11,50,26.30
2018,06,17,11,51,26.20
2018,06,17,11,52,26.20
2018,06,17,11,53,26.30
2018,06,17,11,54,26.40
2018,06,17,11,55,26.40
2018,06,17,11,56,26.40
2018,06,17,11,57,26.50
2018,06,17,11,58,26.50
2018,06,17,11,59,26.60
2018,06,17,12,00,26.70
2018,06,17,12,01,26.70
2018,06,17,12,02,26.70
2018,06,17,12,03,26.70
2018,06,17,12,04,26.80
2018,06,17,12,05,26.80
2018,06,17,12,06,26.80
2018,06,17,12,07,26.80
2018,06,17,12,08,26.90
2018,06,17,12,09,26.90
2018,06,17,12,10,26.90
2018,06,17,12,11,26.90
2018,06,17,12,12,26.90
2018,06,17,12,13,26.90
2018,06,17,12,14,27.00
2018,06,17,12,15,27.10
2018,06,17,12,16,27.10
2018,06,17,12,17,27.30
2018,06,17,12,18,27.40
2018,06,17,12,19,27.40
2018,06,17,12,20,27.40
2018,06,17,12,21,27.40
2018,06,17,12,22,27.50
2018,06,17,12,23,27.50
2018,06,17,12,24,27.40
2018,06,17,12,25,27.30
2018,06,17,12,26,27.30
2018,06,17,12,27,27.20
2018,06,17,12,28,27.30
2018,06,17,12,29,27.30
2018,06,17,12,30,27.40
2018,06,17,12,31,27.30
2018,06,17,12,32,27.30
2018,06,17,12,33,27.30
2018,06,17,12,34,27.30
2018,06,17,12,35,27.30
2018,06,17,12,36,27.20
2018,06,17,12,37,27.20
2018,06,17,12,38,27.20
2018,06,17,12,39,27.30
2018,06,17,12,40,27.40
2018,06,17,12,41,27.60
2018,06,17,12,42,27.70
2018,06,17,12,43,27.80
2018,06,17,12,44,27.80
2018,06,17,12,45,27.80
2018,06,17,12,46,27.80
2018,06,17,12,47,27.90
2018,06,17,12,48,28.10
2018,06,17,12,49,28.30
2018,06,17,12,50,28.30
2018,06,17,12,51,28.30
2018,06,17,12,52,28.30
2018,06,17,12,53,28.30
2018,06,17,12,54,28.40
2018,06,17,12,55,28.40
2018,06,17,12,56,28.30
2018,06,17,12,57,28.20
2018,06,17,12,58,28.10
2018,06,17,12,59,28.00
2018,06,17,13,00,28.00
2018,06,17,13,01,28.00
2018,06,17,13,02,28.10
2018,06,17,13,03,28.10
2018,06,17,13,04,28.10
2018,06,17,13,05,28.20
2018,06,17,13,06,28.20
2018,06,17,13,07,28.20
2018,06,17,13,08,28.30
2018,06,17,13,09,28.30
2018,06,17,13,10,28.40
2018,06,17,13,11,28.50
2018,06,17,13,12,28.50
2018,06,17,13,13,28.50
2018,06,17,13,14,28.60
2018,06,17,13,15,28.60
2018,06,17,13,16,28.70
2018,06,17,13,17,28.90
2018,06,17,13,18,29.00
2018,06,17,13,19,29.10
2018,06,17,13,20,29.20
2018,06,17,13,21,29.20
2018,06,17,13,22,29.20
2018,06,17,13,23,29.30
2018,06,17,13,24,29.40
2018,06,17,13,25,29.50
2018,06,17,13,26,29.60
2018,06,17,13,27,29.60
2018,06,17,13,28,29.50
2018,06,17,13,29,29.40
2018,06,17,13,30,29.40
2018,06,17,13,31,29.40
2018,06,17,13,32,29.30
2018,06,17,13,33,29.30
2018,06,17,13,34,29.40
2018,06,17,13,35,29.30
2018,06,17,13,36,29.20
2018,06,17,13,37,29.10
2018,06,17,13,38,28.90
2018,06,17,13,39,28.80
2018,06,17,13,40,28.80
2018,06,17,13,41,28.80
2018,06,17,13,42,28.80
2018,06,17,13,43,28.80
2018,06,17,13,44,28.80
2018,06,17,13,45,28.70
2018,06,17,13,46,28.70
2018,06,17,13,47,28.70
2018,06,17,13,48,28.70
2018,06,17,13,49,28.70
2018,06,17,13,50,28.90
2018,06,17,13,51,29.00
2018,06,17,13,52,29.10
2018,06,17,13,53,29.20
2018,06,17,13,54,29.30
2018,06,17,13,55,29.30
2018,06,17,13,56,29.30
2018,06,17,13,57,29.20
2018,06,17,13,58,29.10
2018,06,17,13,59,29.00
2018,06,17,14,00,28.90
2018,06,17,14,01,28.80
2018,06,17,14,02,28.80
2018,06,17,14,03,28.70
2018,06,17,14,04,28.70
2018,06,17,14,05,28.70
2018,06,17,14,06,28.70
2018,06,17,14,07,28.80
2018,06,17,14,08,28.90
2018,06,17,14,09,28.90
2018,06,17,14,10,28.90
2018,06,17,14,11,29.00
2018,06,17,14,12,29.10
2018,06,17,14,13,29.20
2018,06,17,14,14,29.30
2018,06,17,14,15,29.40
2018,06,17,14,16,29.50
2018,06,17,14,17,29.60
2018,06,17,14,18,29.50
2018,06,17,14,19,29.50
2018,06,17,14,20,29.50
2018,06,17,14,21,29.60
2018,06,17,14,22,29.70
2018,06,17,14,23,29.80
2018,06,17,14,24,29.90
2018,06,17,14,25,30.10
2018,06,17,14,26,30.20
2018,06,17,14,27,30.20
2018,06,17,14,28,30.20
2018,06,17,14,29,30.20
2018,06,17,14,30,30.20
2018,06,17,14,31,30.00
2018,06,17,14,32,29.90
2018,06,17,14,33,29.80
2018,06,17,14,34,29.70
2018,06,17,14,35,29.60
2018,06,17,14,36,29.60
2018,06,17,14,37,29.60
2018,06,17,14,38,29.70
2018,06,17,14,39,29.80
2018,06,17,14,40,29.80
2018,06,17,14,41,29.80
2018,06,17,14,42,29.80
2018,06,17,14,43,29.80
2018,06,17,14,44,29.80
2018,06,17,14,45,29.80
2018,06,17,14,46,29.90
2018,06,17,14,47,29.90
2018,06,17,14,48,30.00
2018,06,17,14,49,29.90
2018,06,17,14,50,30.00
2018,06,17,14,51,30.10
2018,06,17,14,52,30.10
2018,06,17,14,53,30.20
2018,06,17,14,54,30.20
2018,06,17,14,55,30.10
2018,06,17,14,56,30.10
2018,06,17,14,57,30.10
2018,06,17,14,58,30.10
2018,06,17,14,59,29.90
2018,06,17,15,00,29.80
2018,06,17,15,01,29.70
2018,06,17,15,02,29.60
2018,06,17,15,03,29.50
2018,06,17,15,04,29.50
2018,06,17,15,05,29.40
2018,06,17,15,06,29.50
2018,06,17,15,07,29.50
2018,06,17,15,08,29.60
2018,06,17,15,09,29.60
2018,06,17,15,10,29.60
2018,06,17,15,11,29.60
2018,06,17,15,12,29.50
2018,06,17,15,13,29.50
2018,06,17,15,14,29.40
2018,06,17,15,15,29.30
2018,06,17,15,16,29.30
2018,06,17,15,17,29.20
2018,06,17,15,18,29.20
2018,06,17,15,19,29.30
2018,06,17,15,20,29.40
2018,06,17,15,21,29.40
2018,06,17,15,22,29.50
2018,06,17,15,23,29.50
2018,06,17,15,24,29.60
2018,06,17,15,25,29.60
2018,06,17,15,26,29.70
2018,06,17,15,27,29.80
2018,06,17,15,28,29.80
2018,06,17,15,29,29.80
2018,06,17,15,30,29.80
2018,06,17,15,31,29.80
2018,06,17,15,32,29.80
2018,06,17,15,33,29.80
2018,06,17,15,34,29.80
2018,06,17,15,35,29.80
2018,06,17,15,36,29.80
2018,06,17,15,37,29.80
2018,06,17,15,38,29.80
2018,06,17,15,39,29.80
2018,06,17,15,40,29.80
2018,06,17,15,41,29.70
2018,06,17,15,42,29.70
2018,06,17,15,43,29.70
2018,06,17,15,44,29.70
2018,06,17,15,45,29.70
2018,06,17,15,46,29.70
2018,06,17,15,47,29.70
2018,06,17,15,48,29.70
2018,06,17,15,49,29.70
2018,06,17,15,50,29.70
2018,06,17,15,51,29.70
2018,06,17,15,52,29.70
2018,06,17,15,53,29.70
2018,06,17,15,54,29.60
2018,06,17,15,55,29.60
2018,06,17,15,56,29.50
2018,06,17,15,57,29.50
2018,06,17,15,58,29.40
2018,06,17,15,59,29.30
2018,06,17,16,00,29.20
2018,06,17,16,01,29.20
2018,06,17,16,02,29.20
2018,06,17,16,03,29.20
2018,06,17,16,04,29.30
2018,06,17,16,05,29.30
2018,06,17,16,06,29.30
2018,06,17,16,07,29.30
2018,06,17,16,08,29.30
2018,06,17,16,09,29.30
2018,06,17,16,10,29.30
2018,06,17,16,11,29.40
2018,06,17,16,12,29.40
2018,06,17,16,13,29.40
2018,06,17,16,14,29.40
2018,06,17,16,15,29.40
2018,06,17,16,16,29.40
2018,06,17,16,17,29.50
2018,06,17,16,18,29.50
2018,06,17,16,19,29.50
2018,06,17,16,20,29.60
2018,06,17,16,21,29.60
2018,06,17,16,22,29.60
2018,06,17,16,23,29.60
2018,06,17,16,24,29.70
2018,06,17,16,25,29.70
2018,06,17,16,26,29.70
2018,06,17,16,27,29.70
2018,06,17,16,28,29.80
2018,06,17,16,29,29.80
2018,06,17,16,30,29.80
2018,06,17,16,31,29.80
2018,06,17,16,32,29.80
2018,06,17,16,33,29.80
2018,06,17,16,34,29.80
2018,06,17,16,35,29.80
2018,06,17,16,36,29.80
2018,06,17,16,37,29.80
2018,06,17,16,38,29.80
2018,06,17,16,39,29.80
2018,06,17,16,40,29.80
2018,06,17,16,41,29.80
2018,06,17,16,42,29.80
2018,06,17,16,43,29.80
2018,06,17,16,44,29.80
2018,06,17,16,45,29.70
2018,06,17,16,46,29.70
2018,06,17,16,47,29.70
2018,06,17,16,48,29.70
2018,06,17,16,49,29.70
2018,06,17,16,50,29.60
2018,06,17,16,51,29.60
2018,06,17,16,52,29.60
2018,06,17,16,53,29.60
2018,06,17,16,54,29.60
2018,06,17,16,55,29.60
2018,06,17,16,56,29.60
2018,06,17,16,57,29.60
2018,06,17,16,58,29.60
2018,06,17,16,59,29.60
2018,06,17,17,00,29.60
2018,06,17,17,01,29.60
2018,06,17,17,02,29.60
2018,06,17,17,03,29.60
2018,06,17,17,04,29.60
2018,06,17,17,05,29.60
2018,06,17,17,06,29.60
2018,06,17,17,07,29.60
2018,06,17,17,08,29.60
2018,06,17,17,09,29.60
2018,06,17,17,10,29.60
2018,06,17,17,11,29.60
2018,06,17,17,12,29.60
2018,06,17,17,13,29.60
2018,06,17,17,14,29.60
2018,06,17,17,15,29.60
2018,06,17,17,16,29.60
2018,06,17,17,17,29.60
2018,06,17,17,18,29.60
2018,06,17,17,19,29.60